Saint George, UT

5:17 PM MST on February 24, 2017 (GMT -0700)
Saint George Municipal

Weather History for KSGU - January, 2014

Change the Weather History Date:

Tuesday, January 14, 2014

  Actual Average Record
Temperature  
Mean Temperature 47 °F -  
Max Temperature 66 °F 54 °F 68 °F (1986)
Min Temperature 28 °F 30 °F 8 °F (1963)
Degree Days  
Heating Degree Days 18    
Moisture  
Dew Point 19 °F    
Average Humidity 40    
Maximum Humidity 64    
Minimum Humidity 15    
Precipitation  
Precipitation 0.00 in - - ()
Sea Level Pressure  
Sea Level Pressure 30.47 in    
Wind  
Wind Speed 3 mph (SSW)    
Max Wind Speed 28 mph    
Max Gust Speed 33 mph    
Visibility 10 miles    
Events      
Averages and records for this station are not official NWS values.
T = Trace of Precipitation, MM = Missing Value Source: NWS Daily Summary

Daily Weather History Graph

Daily Weather History Graph

Search for Another Location

Airport or City:

Trip Planner

Search our weather history database for the weather conditions in past years. The results will help you decide how hot, cold, wet, or windy it might be!

Date:

Astronomy

Jan. 14, 2014 Rise Set
Actual Time 7:46 AM MST 5:39 PM MST
Civil Twilight 7:18 AM MST 6:08 PM MST
Nautical Twilight 6:46 AM MST 6:40 PM MST
Astronomical Twilight 6:15 AM MST 7:11 PM MST
Moon 4:47 PM MST (1/14) 6:24 AM MST (1/14)
Length of Visible Light 10h 50m
Length of Day
9h 53m
Waxing Gibbous, 98% of the Moon is Illuminated
Jan 14
Waxing Gibbous
Jan 15
Full
Jan 23
Last Quarter
Jan 30
New
Feb 6
First Quarter

Hourly Weather History & Observations

Time (MST) Temp. Windchill Dew Point Humidity Pressure Visibility Wind Dir Wind Speed Gust Speed Precip Events Conditions
12:15 AM 33.8 °F - 17.6 °F 52% 30.43 in 10.0 mi Calm Calm - N/A   Clear
12:35 AM 35.6 °F - 19.4 °F 52% 30.43 in 10.0 mi Calm Calm - N/A   Clear
12:55 AM 37.4 °F 33.8 °F 19.4 °F 48% 30.43 in 10.0 mi South 4.6 mph - N/A   Clear
1:15 AM 35.6 °F - 19.4 °F 52% 30.43 in 10.0 mi Calm Calm - N/A   Clear
1:35 AM 37.4 °F 33.8 °F 19.4 °F 48% 30.44 in 10.0 mi South 4.6 mph - N/A   Clear
1:55 AM 35.6 °F - 19.4 °F 52% 30.44 in 10.0 mi Calm Calm - N/A   Clear
2:15 AM 33.8 °F - 19.4 °F 56% 30.45 in 10.0 mi Calm Calm - N/A   Clear
2:35 AM 33.8 °F - 19.4 °F 56% 30.45 in 10.0 mi Calm Calm - N/A   Clear
2:55 AM 35.6 °F - 19.4 °F 52% 30.46 in 10.0 mi Calm Calm - N/A   Clear
3:15 AM 33.8 °F - 19.4 °F 56% 30.46 in 10.0 mi Calm Calm - N/A   Clear
3:35 AM 33.8 °F - 19.4 °F 56% 30.46 in 10.0 mi Calm Calm - N/A   Clear
3:55 AM 32.0 °F 27.5 °F 19.4 °F 60% 30.46 in 10.0 mi SSE 4.6 mph - N/A   Clear
4:15 AM 32.0 °F - 19.4 °F 60% 30.46 in 10.0 mi Calm Calm - N/A   Clear
4:35 AM 32.0 °F 27.5 °F 19.4 °F 60% 30.46 in 10.0 mi South 4.6 mph - N/A   Clear
4:55 AM 30.2 °F - 19.4 °F 64% 30.46 in 10.0 mi Calm Calm - N/A   Clear
5:15 AM 30.2 °F 26.7 °F 19.4 °F 64% 30.46 in 10.0 mi South 3.5 mph - N/A   Clear
5:35 AM 30.2 °F - 19.4 °F 64% 30.46 in 10.0 mi Calm Calm - N/A   Clear
5:55 AM 30.2 °F - 19.4 °F 64% 30.46 in 10.0 mi Calm Calm - N/A   Clear
6:15 AM 30.2 °F - 19.4 °F 64% 30.47 in 10.0 mi Calm Calm - N/A   Clear
6:35 AM 30.2 °F 26.7 °F 19.4 °F 64% 30.48 in 10.0 mi North 3.5 mph - N/A   Clear
6:55 AM 30.2 °F - 17.6 °F 60% 30.48 in 10.0 mi Calm Calm - N/A   Clear
7:15 AM 30.2 °F 26.7 °F 17.6 °F 60% 30.49 in 10.0 mi East 3.5 mph - N/A   Clear
7:35 AM 28.4 °F - 17.6 °F 64% 30.50 in 10.0 mi Calm Calm - N/A   Clear
7:55 AM 30.2 °F - 19.4 °F 64% 30.51 in 10.0 mi Calm Calm - N/A   Clear
8:15 AM 30.2 °F - 19.4 °F 64% 30.52 in 10.0 mi Calm Calm - N/A   Clear
8:35 AM 30.2 °F - 19.4 °F 64% 30.53 in 10.0 mi Calm Calm - N/A   Clear
8:55 AM 30.2 °F 25.4 °F 19.4 °F 64% 30.54 in 10.0 mi WSW 4.6 mph - N/A   Clear
9:15 AM 33.8 °F 29.6 °F 21.2 °F 60% 30.55 in 10.0 mi WNW 4.6 mph - N/A   Clear
9:35 AM 33.8 °F 30.8 °F 21.2 °F 60% 30.56 in 10.0 mi NNW 3.5 mph - N/A   Clear
9:55 AM 35.6 °F - 21.2 °F 56% 30.56 in 10.0 mi Calm Calm - N/A   Clear
10:15 AM 37.4 °F 33.8 °F 23.0 °F 56% 30.56 in 10.0 mi SSW 4.6 mph - N/A   Clear
10:35 AM 39.2 °F - 21.2 °F 49% 30.56 in 10.0 mi Calm Calm - N/A   Clear
10:55 AM 41.0 °F 39.0 °F 23.0 °F 49% 30.55 in 10.0 mi West 3.5 mph - N/A   Clear
11:15 AM 44.6 °F 42.2 °F 23.0 °F 43% 30.54 in 10.0 mi South 4.6 mph - N/A   Clear
11:35 AM 46.4 °F 43.5 °F 23.0 °F 40% 30.53 in 10.0 mi SSE 5.8 mph - N/A   Clear
11:55 AM 48.2 °F - 24.8 °F 40% 30.52 in 10.0 mi South 6.9 mph - N/A   Clear
12:15 PM 51.8 °F - 24.8 °F 35% 30.51 in 10.0 mi SSE 9.2 mph - N/A   Clear
12:35 PM 53.6 °F - 23.0 °F 30% 30.50 in 10.0 mi South 6.9 mph - N/A   Clear
12:55 PM 57.2 °F - 24.8 °F 29% 30.48 in 10.0 mi South 8.1 mph - N/A   Clear
1:15 PM 57.2 °F - 23.0 °F 27% 30.47 in 10.0 mi SSW 5.8 mph - N/A   Clear
1:35 PM 60.8 °F - 23.0 °F 23% 30.45 in 10.0 mi WSW 12.7 mph - N/A   Clear
1:55 PM 62.6 °F - 19.4 °F 19% 30.45 in 10.0 mi West 9.2 mph - N/A   Clear
2:15 PM 62.6 °F - 17.6 °F 18% 30.44 in 10.0 mi West 8.1 mph - N/A   Clear
2:35 PM 64.4 °F - 17.6 °F 16% 30.44 in 10.0 mi North 5.8 mph - N/A   Clear
2:55 PM 66.2 °F - 19.4 °F 17% 30.43 in 10.0 mi NNE 17.3 mph 23.0 mph N/A   Clear
3:15 PM 64.4 °F - 17.6 °F 16% 30.41 in 10.0 mi NE 27.6 mph 33.4 mph N/A   Clear
3:35 PM 64.4 °F - 17.6 °F 16% 30.41 in 10.0 mi North 8.1 mph 29.9 mph N/A   Clear
3:55 PM 64.4 °F - 17.6 °F 16% 30.42 in 10.0 mi WSW 13.8 mph - N/A   Clear
4:15 PM 64.4 °F - 17.6 °F 16% 30.44 in 10.0 mi SW 10.4 mph - N/A   Clear
4:35 PM 62.6 °F - 15.8 °F 16% 30.44 in 10.0 mi South 8.1 mph - N/A   Clear
4:55 PM 62.6 °F - 15.8 °F 16% 30.44 in 10.0 mi East 6.9 mph - N/A   Clear
5:15 PM 64.4 °F - 15.8 °F 15% 30.44 in 10.0 mi East 3.5 mph - N/A   Clear
5:35 PM 60.8 °F - 14.0 °F 16% 30.44 in 10.0 mi East 5.8 mph - N/A   Clear
5:55 PM 59.0 °F - 12.2 °F 16% 30.44 in 10.0 mi East 3.5 mph - N/A   Clear
6:15 PM 57.2 °F - 12.2 °F 17% 30.44 in 10.0 mi SW 5.8 mph - N/A   Clear
6:35 PM 55.4 °F - 14.0 °F 20% 30.45 in 10.0 mi SSW 8.1 mph - N/A   Clear
6:55 PM 55.4 °F - 12.2 °F 18% 30.46 in 10.0 mi SSE 4.6 mph - N/A   Clear
7:15 PM 55.4 °F - 14.0 °F 20% 30.46 in 10.0 mi North 8.1 mph - N/A   Clear
7:35 PM 55.4 °F - 15.8 °F 21% 30.46 in 10.0 mi NE 12.7 mph - N/A   Clear
7:55 PM 53.6 °F - 15.8 °F 22% 30.46 in 10.0 mi Calm Calm - N/A   Clear
8:15 PM 53.6 °F - 15.8 °F 22% 30.46 in 10.0 mi NE 9.2 mph - N/A   Clear
8:35 PM 50.0 °F - 15.8 °F 26% 30.47 in 10.0 mi North 4.6 mph - N/A   Clear
8:55 PM 48.2 °F - 15.8 °F 27% 30.48 in 10.0 mi NE 6.9 mph - N/A   Clear
9:15 PM 51.8 °F - 15.8 °F 24% 30.48 in 10.0 mi Calm Calm - N/A   Clear
9:35 PM 48.2 °F - 15.8 °F 27% 30.48 in 10.0 mi Calm Calm - N/A   Clear
9:55 PM 48.2 °F - 15.8 °F 27% 30.47 in 10.0 mi NNE 5.8 mph - N/A   Clear
10:15 PM 46.4 °F 42.9 °F 15.8 °F 29% 30.48 in 10.0 mi SW 6.9 mph - N/A   Clear
10:35 PM 44.6 °F 40.2 °F 15.8 °F 31% 30.48 in 10.0 mi WNW 8.1 mph - N/A   Clear
10:55 PM 42.8 °F - 17.6 °F 36% 30.49 in 10.0 mi Calm Calm - N/A   Clear
11:15 PM 44.6 °F - 17.6 °F 34% 30.49 in 10.0 mi Calm Calm - N/A   Clear
11:35 PM 42.8 °F 41.1 °F 17.6 °F 36% 30.49 in 10.0 mi SW 3.5 mph - N/A   Clear
11:55 PM 39.2 °F - 17.6 °F 42% 30.49 in 10.0 mi Calm Calm - N/A   Clear